This demonstration page uses our WeatherBlox Daily Observations layout. Learn more.

Left ArrowRight Arrow

41.86663, -103.66717

Hourly Observations for November 16, 2016

Temp ( °F °C ) Dew Point ( °F °C ) Humidity (%) Winds ( mph kmh ) Pressure ( in mb ) Visibility ( mi km ) Precip ( " mm )
12:53 am 00:53 Clear 38 3.3 26 -3.3 62 62 ESE 6 9 29.73 1007 10 16 N/A
1:53 am 01:53 Clear 36 2.2 25 -3.9 64 64 ENE 3 6 29.72 1006 10 16 N/A
2:53 am 02:53 Clear 33 0.6 25 -3.9 72 72 N 6 9 29.71 1006 10 16 N/A
3:53 am 03:53 Clear 32 undefined 25 -3.9 75 75 NW 3 6 29.72 1007 10 16 N/A
4:53 am 04:53 Clear 33 0.6 25 -3.9 72 72 N N/A 29.73 1007 10 16 N/A
5:53 am 05:53 Clear 30 -1.1 23 -5 75 75 N N/A 29.73 1007 10 16 N/A
6:53 am 06:53 Sunny 32 undefined 23 -5 69 69 N N/A 29.74 1007 10 16 N/A
7:53 am 07:53 Sunny 40 4.4 27 -2.8 60 60 N N/A 29.70 1006 10 16 N/A
8:53 am 08:53 Sunny 46 7.8 28 -2.2 50 50 SE 5 7 29.67 1005 10 16 N/A
9:53 am 09:53 Sunny 53 11.7 28 -2.2 38 38 ESE 3 6 29.63 1003 10 16 N/A
10:53 am 10:53 Sunny 58 14.4 30 -1.1 35 35 N N/A 29.60 1002 10 16 N/A
11:53 am 11:53 Sunny 59 15 31 -0.6 35 35 SSE 6 9 29.57 1001 9 14 N/A
12:53 pm 12:53 Sunny 65 18.3 29 -1.7 26 26 NNE 5 7 29.52 1000 9 14 N/A
1:53 pm 13:53 Sunny 67 19.4 28 -2.2 23 23 SW 3 6 29.50 999 10 16 N/A
2:53 pm 14:53 Sunny 65 18.3 22 -5.6 19 19 NNE 22 35 29.52 1000 10 16 N/A
3:53 pm 15:53 Sunny 59 15 25 -3.9 27 27 NNE 21 33 29.56 1001 10 16 N/A
4:53 pm 16:53 Clear 54 12.2 27 -2.8 35 35 NE 13 20 29.63 1004 10 16 N/A
5:53 pm 17:53 Clear 50 10 29 -1.7 44 44 ENE 10 17 29.69 1005 10 16 N/A
6:53 pm 18:53 Clear 48 8.9 29 -1.7 48 48 NE 8 13 29.70 1006 10 16 N/A
7:53 pm 19:53 Clear 45 7.2 29 -1.7 54 54 NNW 5 7 29.69 1006 10 16 N/A
8:53 pm 20:53 Clear 42 5.6 29 -1.7 60 60 WNW 5 7 29.68 1005 10 16 N/A
9:53 pm 21:53 Clear 45 7.2 30 -1.1 56 56 ENE 7 11 29.65 1004 10 16 N/A
10:53 pm 22:53 Clear 43 6.1 30 -1.1 60 60 NNE 8 13 29.64 1004 10 16 N/A
11:53 pm 23:53 Clear 42 5.6 29 -1.7 60 60 N 6 9 29.67 1005 10 16 N/A

Powered by AerisWeather